| time (UTC) | temp F | wind direction | speed knots | gust knots | rain 1hr in | rain 24hr in | rain mn in | humidity % | barometer mb |
| 20260504173904 | 43 | 278 | 0.0 | 0.0 | 0.00 | 0.03 | 0.03 | 86 | 1004.3 |
| 20260504173757 | 43 | 284 | 0.0 | 0.0 | 0.00 | 0.03 | 0.03 | 86 | 1004.3 |
| 20260504173654 | 43 | 263 | 0.0 | 0.0 | 0.00 | 0.03 | 0.03 | 86 | 1004.3 |
| 20260504173552 | 43 | 292 | 0.0 | 0.0 | 0.00 | 0.03 | 0.03 | 86 | 1004.4 |
| 20260504173444 | 43 | 275 | 0.0 | 0.0 | 0.00 | 0.03 | 0.03 | 86 | 1004.4 |
| 20260504173339 | 43 | 296 | 0.0 | 0.0 | 0.00 | 0.03 | 0.03 | 86 | 1004.4 |
| 20260504172758 | 43 | 274 | 0.0 | 0.0 | 0.00 | 0.03 | 0.03 | 86 | 1004.4 |
| 20260504172431 | 43 | 254 | 0.0 | 0.0 | 0.00 | 0.03 | 0.03 | 86 | 1004.4 |
| 20260504172327 | 43 | 220 | 0.0 | 0.0 | 0.00 | 0.03 | 0.03 | 86 | 1004.5 |
| 20260504172220 | 43 | 266 | 0.0 | 0.0 | 0.00 | 0.03 | 0.03 | 87 | 1004.4 |
| 20260504172116 | 43 | 275 | 0.0 | 0.0 | 0.00 | 0.03 | 0.03 | 87 | 1004.4 |
| 20260504172009 | 43 | 267 | 0.0 | 0.0 | 0.00 | 0.03 | 0.03 | 87 | 1004.3 |
| 20260504171904 | 43 | 236 | 0.0 | 0.0 | 0.00 | 0.03 | 0.03 | 87 | 1004.4 |
| 20260504171802 | 42 | 209 | 0.0 | 0.0 | 0.00 | 0.03 | 0.03 | 87 | 1004.3 |
| 20260504171217 | 42 | 208 | 0.0 | 0.0 | 0.00 | 0.03 | 0.03 | 87 | 1004.3 |
| 20260504171112 | 42 | 208 | 0.0 | 0.0 | 0.00 | 0.03 | 0.03 | 87 | 1004.3 |
| 20260504171005 | 42 | 208 | 0.0 | 0.0 | 0.00 | 0.03 | 0.03 | 87 | 1004.4 |
| 20260504170902 | 42 | 207 | 0.0 | 0.0 | 0.00 | 0.03 | 0.03 | 87 | 1004.3 |
| 20260504170756 | 42 | 207 | 0.0 | 0.0 | 0.00 | 0.03 | 0.03 | 88 | 1004.3 |
| 20260504170651 | 42 | 246 | 0.0 | 0.0 | 0.00 | 0.03 | 0.03 | 88 | 1004.4 |
| 20260504170548 | 42 | 333 | 0.0 | 0.0 | 0.00 | 0.03 | 0.03 | 87 | 1004.3 |
| 20260504170444 | 42 | 328 | 0.0 | 0.0 | 0.00 | 0.03 | 0.03 | 87 | 1004.4 |
| 20260504170122 | 42 | 319 | 0.0 | 0.0 | 0.00 | 0.03 | 0.03 | 87 | 1004.3 |
| 20260504160400 | 40 | 303 | 0.0 | 1.7 | 0.00 | 0.03 | 0.03 | 88 | 1004.5 |
| 20260504160255 | 40 | 303 | 0.0 | 1.7 | 0.00 | 0.03 | 0.03 | 88 | 1004.5 |
| 20260504160152 | 40 | 270 | 0.0 | 0.9 | 0.00 | 0.03 | 0.03 | 88 | 1004.6 |
| 20260504151128 | 40 | 332 | 0.0 | 0.0 | 0.04 | 0.02 | 0.02 | 86 | 1004.7 |
| 20260504151024 | 40 | 296 | 0.0 | 0.0 | 0.04 | 0.02 | 0.02 | 86 | 1004.7 |
| 20260504150918 | 40 | 296 | 0.0 | 0.0 | 0.04 | 0.02 | 0.02 | 86 | 1004.7 |
| 20260504150812 | 40 | 296 | 0.0 | 0.0 | 0.04 | 0.02 | 0.02 | 85 | 1004.8 |
| 20260504150708 | 40 | 296 | 0.0 | 0.0 | 0.04 | 0.02 | 0.02 | 85 | 1004.7 |
| 20260504150602 | 40 | 296 | 0.0 | 0.0 | 0.04 | 0.02 | 0.02 | 85 | 1004.6 |
| 20260504150240 | 40 | 295 | 0.0 | 0.0 | 0.04 | 0.01 | 0.02 | 84 | 1004.6 |
| 20260504141246 | 43 | 223 | 0.0 | 0.0 | 0.00 | 0.00 | 0.00 | 67 | 1004.3 |
| 20260504141144 | 43 | 317 | 0.0 | 0.0 | 0.00 | 0.00 | 0.00 | 67 | 1004.3 |
| 20260504141041 | 43 | 317 | 0.0 | 0.0 | 0.00 | 0.00 | 0.00 | 67 | 1004.3 |
| 20260504140938 | 43 | 295 | 0.0 | 0.0 | 0.00 | 0.00 | 0.00 | 67 | 1004.4 |
| 20260504140835 | 43 | 204 | 0.0 | 0.0 | 0.00 | 0.00 | 0.00 | 67 | 1004.3 |
| 20260504140733 | 43 | 201 | 0.0 | 0.0 | 0.00 | 0.00 | 0.00 | 67 | 1004.3 |
| 20260504140631 | 43 | 201 | 0.0 | 0.0 | 0.00 | 0.00 | 0.00 | 67 | 1004.3 |
| 20260504130747 | 44 | 211 | 0.0 | 0.0 | 0.00 | 0.00 | 0.00 | 59 | 1004.2 |
| 20260504130646 | 44 | 186 | 0.0 | 0.0 | 0.00 | 0.00 | 0.00 | 59 | 1004.2 |
| 20260504130538 | 44 | 186 | 0.0 | 0.0 | 0.00 | 0.00 | 0.00 | 59 | 1004.2 |
| 20260504130215 | 44 | 275 | 0.0 | 0.0 | 0.00 | 0.00 | 0.00 | 58 | 1004.3 |
| 20260504130109 | 44 | 190 | 0.0 | 0.0 | 0.00 | 0.00 | 0.00 | 58 | 1004.2 |
| 20260504120212 | 41 | 92 | 0.0 | 0.0 | 0.00 | 0.00 | 0.00 | 65 | 1004.7 |
| 20260504110640 | 35 | 107 | 0.0 | 0.0 | 0.00 | 0.00 | 0.00 | 80 | 1004.8 |
| 20260504110538 | 35 | 107 | 0.0 | 0.0 | 0.00 | 0.00 | 0.00 | 80 | 1004.9 |
| 20260504110437 | 35 | 107 | 0.0 | 0.0 | 0.00 | 0.00 | 0.00 | 80 | 1004.9 |
| 20260504110334 | 35 | 107 | 0.0 | 0.0 | 0.00 | 0.00 | 0.00 | 80 | 1004.9 |
| 20260504110232 | 35 | 107 | 0.0 | 0.0 | 0.00 | 0.00 | 0.00 | 81 | 1004.9 |
| 20260504110130 | 35 | 55 | 0.0 | 0.0 | 0.00 | 0.00 | 0.00 | 82 | 1004.9 |
| 20260504100520 | 28 | 5 | 0.0 | 0.0 | 0.00 | 0.00 | 0.00 | 90 | 1004.8 |
| 20260504100415 | 28 | 310 | 0.0 | 0.0 | 0.00 | 0.00 | 0.00 | 90 | 1004.8 |
| 20260504100308 | 28 | 302 | 0.0 | 0.0 | 0.00 | 0.00 | 0.00 | 90 | 1004.9 |
| 20260504081950 | 29 | 5 | 0.0 | 0.0 | 0.00 | 0.00 | 0.00 | 89 | 1005.2 |
| 20260504081844 | 29 | 5 | 0.0 | 0.0 | 0.00 | 0.00 | 0.00 | 89 | 1005.2 |
| 20260504081518 | 29 | 5 | 0.0 | 0.0 | 0.00 | 0.00 | 0.00 | 89 | 1005.2 |
| 20260504081412 | 29 | 5 | 0.0 | 0.0 | 0.00 | 0.00 | 0.00 | 89 | 1005.2 |
| 20260504081050 | 29 | 5 | 0.0 | 0.0 | 0.00 | 0.00 | 0.00 | 89 | 1005.2 |
| 20260504080943 | 29 | 5 | 0.0 | 0.0 | 0.00 | 0.00 | 0.00 | 89 | 1005.2 |
| 20260504080133 | 29 | 15 | 0.0 | 0.0 | 0.00 | 0.00 | 0.00 | 89 | 1005.2 |
| 20260504070324 | 28 | 17 | 0.0 | 0.0 | 0.00 | 0.00 | 0.00 | 88 | 1005.6 |
| 20260504070218 | 28 | 17 | 0.0 | 0.0 | 0.00 | 0.00 | 0.00 | 87 | 1005.6 |
| 20260504070112 | 28 | 17 | 0.0 | 0.0 | 0.00 | 0.00 | 0.00 | 87 | 1005.7 |
| 20260504060207 | 30 | 11 | 0.0 | 0.0 | 0.00 | 0.00 | 0.00 | 86 | 1005.6 |
| 20260504050726 | 29 | 5 | 0.0 | 0.0 | 0.00 | 0.00 | 0.00 | 87 | 1006.0 |
| 20260504050619 | 29 | 5 | 0.0 | 0.0 | 0.00 | 0.00 | 0.00 | 87 | 1006.0 |
| 20260504050514 | 29 | 5 | 0.0 | 0.0 | 0.00 | 0.00 | 0.00 | 87 | 1006.0 |
| 20260504050411 | 29 | 5 | 0.0 | 0.0 | 0.00 | 0.00 | 0.00 | 87 | 1006.0 |
| 20260504050308 | 29 | 5 | 0.0 | 0.0 | 0.00 | 0.00 | 0.00 | 87 | 1006.0 |
| 20260504050203 | 29 | 5 | 0.0 | 0.0 | 0.00 | 0.00 | 0.00 | 87 | 1006.1 |
| 20260504045840 | 29 | 5 | 0.0 | 0.0 | 0.00 | 0.00 | 0.00 | 87 | 1006.0 |
| 20260504045734 | 29 | 5 | 0.0 | 0.0 | 0.00 | 0.00 | 0.00 | 86 | 1006.0 |
| 20260504045628 | 29 | 5 | 0.0 | 0.0 | 0.00 | 0.00 | 0.00 | 86 | 1006.0 |
| 20260504045521 | 29 | 5 | 0.0 | 0.0 | 0.00 | 0.00 | 0.00 | 86 | 1006.0 |
| 20260504045419 | 29 | 5 | 0.0 | 0.0 | 0.00 | 0.00 | 0.00 | 86 | 1006.1 |
| 20260504045316 | 29 | 5 | 0.0 | 0.0 | 0.00 | 0.00 | 0.00 | 86 | 1006.0 |
| 20260504045213 | 29 | 5 | 0.0 | 0.0 | 0.00 | 0.00 | 0.00 | 86 | 1006.0 |
| 20260504044849 | 29 | 5 | 0.0 | 0.0 | 0.00 | 0.00 | 0.00 | 86 | 1006.1 |
| 20260504044744 | 29 | 5 | 0.0 | 0.0 | 0.00 | 0.00 | 0.00 | 86 | 1006.1 |
| 20260504044640 | 29 | 5 | 0.0 | 0.0 | 0.00 | 0.00 | 0.00 | 86 | 1006.1 |
| 20260504044314 | 29 | 5 | 0.0 | 0.0 | 0.00 | 0.00 | 0.00 | 86 | 1006.1 |
| 20260504044208 | 29 | 5 | 0.0 | 0.0 | 0.00 | 0.00 | 0.00 | 86 | 1006.1 |
| 20260504044104 | 29 | 5 | 0.0 | 0.0 | 0.00 | 0.00 | 0.00 | 86 | 1006.2 |
| 20260504043959 | 29 | 5 | 0.0 | 0.0 | 0.00 | 0.00 | 0.00 | 86 | 1006.2 |
| 20260504043853 | 29 | 5 | 0.0 | 0.0 | 0.00 | 0.00 | 0.00 | 86 | 1006.2 |
| 20260504043750 | 29 | 5 | 0.0 | 0.0 | 0.00 | 0.00 | 0.00 | 86 | 1006.3 |
| 20260504043646 | 29 | 5 | 0.0 | 0.0 | 0.00 | 0.00 | 0.00 | 86 | 1006.2 |
| 20260504043539 | 29 | 5 | 0.0 | 0.0 | 0.00 | 0.00 | 0.00 | 86 | 1006.2 |
| 20260504043436 | 29 | 5 | 0.0 | 0.0 | 0.00 | 0.00 | 0.00 | 86 | 1006.2 |
| 20260504043331 | 29 | 5 | 0.0 | 0.0 | 0.00 | 0.00 | 0.00 | 86 | 1006.2 |
| 20260504043227 | 29 | 5 | 0.0 | 0.0 | 0.00 | 0.00 | 0.00 | 86 | 1006.2 |
| 20260504043124 | 29 | 5 | 0.0 | 0.0 | 0.00 | 0.00 | 0.00 | 86 | 1006.2 |
| 20260504043020 | 29 | 5 | 0.0 | 0.0 | 0.00 | 0.00 | 0.00 | 86 | 1006.2 |
| 20260504042916 | 29 | 5 | 0.0 | 0.0 | 0.00 | 0.00 | 0.00 | 86 | 1006.3 |
| 20260504042811 | 29 | 5 | 0.0 | 0.0 | 0.00 | 0.00 | 0.00 | 86 | 1006.2 |
| 20260504042706 | 29 | 5 | 0.0 | 0.0 | 0.00 | 0.00 | 0.00 | 85 | 1006.2 |
| 20260504042601 | 29 | 5 | 0.0 | 0.0 | 0.00 | 0.00 | 0.00 | 85 | 1006.2 |
| 20260504042456 | 29 | 5 | 0.0 | 0.0 | 0.00 | 0.00 | 0.00 | 85 | 1006.2 |
| 20260504042348 | 29 | 5 | 0.0 | 0.0 | 0.00 | 0.00 | 0.00 | 85 | 1006.3 |
| 20260504042244 | 29 | 5 | 0.0 | 0.0 | 0.00 | 0.00 | 0.00 | 85 | 1006.3 |
| 20260504041924 | 29 | 5 | 0.0 | 0.0 | 0.00 | 0.00 | 0.00 | 86 | 1006.3 |
| 20260504041558 | 30 | 5 | 0.0 | 0.0 | 0.00 | 0.00 | 0.00 | 86 | 1006.3 |
| 20260504041237 | 29 | 5 | 0.0 | 0.0 | 0.00 | 0.00 | 0.00 | 85 | 1006.3 |
| 20260504041131 | 30 | 5 | 0.0 | 0.0 | 0.00 | 0.00 | 0.00 | 85 | 1006.3 |
| 20260504041024 | 29 | 5 | 0.0 | 0.0 | 0.00 | 0.00 | 0.00 | 85 | 1006.3 |
| 20260504040919 | 29 | 5 | 0.0 | 0.0 | 0.00 | 0.00 | 0.00 | 85 | 1006.3 |
| 20260504040816 | 30 | 5 | 0.0 | 0.0 | 0.00 | 0.00 | 0.00 | 84 | 1006.3 |
| 20260504040711 | 30 | 5 | 0.0 | 0.0 | 0.00 | 0.00 | 0.00 | 84 | 1006.3 |
| 20260504040607 | 30 | 5 | 0.0 | 0.0 | 0.00 | 0.00 | 0.00 | 85 | 1006.3 |
| 20260504040505 | 30 | 5 | 0.0 | 0.0 | 0.00 | 0.00 | 0.00 | 84 | 1006.3 |
| 20260504040400 | 30 | 5 | 0.0 | 0.0 | 0.00 | 0.00 | 0.00 | 84 | 1006.4 |
| 20260504040036 | 30 | 5 | 0.0 | 0.0 | 0.00 | 0.00 | 0.00 | 84 | 1006.4 |
| 20260504035934 | 30 | 5 | 0.0 | 0.0 | 0.00 | 0.00 | 0.00 | 84 | 1006.3 |
| 20260504035828 | 30 | 5 | 0.0 | 0.0 | 0.00 | 0.00 | 0.00 | 84 | 1006.3 |
| 20260504035725 | 30 | 5 | 0.0 | 0.0 | 0.00 | 0.00 | 0.00 | 84 | 1006.3 |
| 20260504035402 | 30 | 5 | 0.0 | 0.0 | 0.00 | 0.00 | 0.00 | 84 | 1006.4 |
| 20260504035256 | 30 | 5 | 0.0 | 0.0 | 0.00 | 0.00 | 0.00 | 84 | 1006.4 |
| 20260504035150 | 30 | 5 | 0.0 | 0.0 | 0.00 | 0.00 | 0.00 | 84 | 1006.4 |
| 20260504035044 | 30 | 5 | 0.0 | 0.0 | 0.00 | 0.00 | 0.00 | 84 | 1006.4 |
| 20260504034942 | 30 | 5 | 0.0 | 0.0 | 0.00 | 0.00 | 0.00 | 84 | 1006.4 |
| 20260504034837 | 30 | 5 | 0.0 | 0.0 | 0.00 | 0.00 | 0.00 | 84 | 1006.3 |
| 20260504034731 | 30 | 5 | 0.0 | 0.0 | 0.00 | 0.00 | 0.00 | 83 | 1006.3 |
| 20260504034628 | 30 | 5 | 0.0 | 0.0 | 0.00 | 0.00 | 0.00 | 83 | 1006.3 |
| 20260504034301 | 30 | 5 | 0.0 | 0.0 | 0.00 | 0.00 | 0.00 | 83 | 1006.4 |
| 20260504034154 | 30 | 5 | 0.0 | 0.0 | 0.00 | 0.00 | 0.00 | 83 | 1006.4 |
| 20260504033612 | 30 | 5 | 0.0 | 0.0 | 0.00 | 0.00 | 0.00 | 83 | 1006.3 |
| 20260504033508 | 30 | 5 | 0.0 | 0.0 | 0.00 | 0.00 | 0.00 | 83 | 1006.3 |
| 20260504033401 | 30 | 5 | 0.0 | 0.0 | 0.00 | 0.00 | 0.00 | 83 | 1006.3 |
| 20260504033258 | 30 | 5 | 0.0 | 0.0 | 0.00 | 0.00 | 0.00 | 83 | 1006.3 |
| 20260504033156 | 30 | 5 | 0.0 | 0.0 | 0.00 | 0.00 | 0.00 | 83 | 1006.3 |
| 20260504033054 | 30 | 5 | 0.0 | 0.0 | 0.00 | 0.00 | 0.00 | 83 | 1006.4 |
| 20260504032948 | 30 | 5 | 0.0 | 0.0 | 0.00 | 0.00 | 0.00 | 83 | 1006.4 |
| 20260504032845 | 30 | 5 | 0.0 | 0.0 | 0.00 | 0.00 | 0.00 | 82 | 1006.3 |
| 20260504032738 | 30 | 5 | 0.0 | 0.0 | 0.00 | 0.00 | 0.00 | 83 | 1006.3 |
| 20260504032631 | 30 | 5 | 0.0 | 0.0 | 0.00 | 0.00 | 0.00 | 83 | 1006.3 |
| 20260504032529 | 30 | 5 | 0.0 | 0.0 | 0.00 | 0.00 | 0.00 | 82 | 1006.2 |
| 20260504032424 | 30 | 5 | 0.0 | 0.0 | 0.00 | 0.00 | 0.00 | 82 | 1006.3 |
| 20260504032317 | 30 | 5 | 0.0 | 0.0 | 0.00 | 0.00 | 0.00 | 82 | 1006.3 |
| 20260504031954 | 30 | 5 | 0.0 | 0.0 | 0.00 | 0.00 | 0.00 | 82 | 1006.3 |
| 20260504031411 | 31 | 5 | 0.0 | 0.0 | 0.00 | 0.00 | 0.00 | 81 | 1006.2 |
| 20260504031309 | 31 | 5 | 0.0 | 0.0 | 0.00 | 0.00 | 0.00 | 81 | 1006.2 |
| 20260504031205 | 31 | 5 | 0.0 | 0.0 | 0.00 | 0.00 | 0.00 | 81 | 1006.1 |
| 20260504031058 | 31 | 5 | 0.0 | 0.0 | 0.00 | 0.00 | 0.00 | 81 | 1006.2 |
| 20260504030953 | 31 | 5 | 0.0 | 0.0 | 0.00 | 0.00 | 0.00 | 81 | 1006.1 |
| 20260504030624 | 31 | 5 | 0.0 | 0.0 | 0.00 | 0.00 | 0.00 | 80 | 1006.1 |
| 20260504030518 | 31 | 5 | 0.0 | 0.0 | 0.00 | 0.00 | 0.00 | 80 | 1006.1 |
| 20260504030414 | 31 | 5 | 0.0 | 0.0 | 0.00 | 0.00 | 0.00 | 80 | 1006.1 |
| 20260504030309 | 31 | 5 | 0.0 | 0.0 | 0.00 | 0.00 | 0.00 | 80 | 1006.1 |
| 20260504030207 | 31 | 5 | 0.0 | 0.0 | 0.00 | 0.00 | 0.00 | 80 | 1006.1 |
| 20260504025955 | 31 | 5 | 0.0 | 0.0 | 0.00 | 0.00 | 0.00 | 80 | 1006.2 |
| 20260504025848 | 31 | 5 | 0.0 | 0.0 | 0.00 | 0.00 | 0.00 | 80 | 1006.2 |
| 20260504025746 | 31 | 5 | 0.0 | 0.0 | 0.00 | 0.00 | 0.00 | 80 | 1006.2 |
| 20260504025201 | 32 | 5 | 0.0 | 0.0 | 0.00 | 0.00 | 0.00 | 79 | 1006.1 |
| 20260504024836 | 32 | 5 | 0.0 | 0.0 | 0.00 | 0.00 | 0.00 | 79 | 1006.2 |
| 20260504024732 | 32 | 5 | 0.0 | 0.0 | 0.00 | 0.00 | 0.00 | 79 | 1006.1 |
| 20260504024627 | 32 | 5 | 0.0 | 0.0 | 0.00 | 0.00 | 0.00 | 78 | 1006.1 |
| 20260504024525 | 32 | 5 | 0.0 | 0.0 | 0.00 | 0.00 | 0.00 | 78 | 1006.2 |
| 20260504024423 | 32 | 5 | 0.0 | 0.0 | 0.00 | 0.00 | 0.00 | 78 | 1006.1 |
| 20260504024321 | 32 | 5 | 0.0 | 0.0 | 0.00 | 0.00 | 0.00 | 78 | 1006.2 |
| 20260504024216 | 32 | 5 | 0.0 | 0.0 | 0.00 | 0.00 | 0.00 | 78 | 1006.2 |
| 20260504024113 | 32 | 5 | 0.0 | 0.0 | 0.00 | 0.00 | 0.00 | 78 | 1006.2 |
| 20260504023750 | 32 | 5 | 0.0 | 0.0 | 0.00 | 0.00 | 0.00 | 78 | 1006.2 |
| 20260504023647 | 32 | 5 | 0.0 | 0.0 | 0.00 | 0.00 | 0.00 | 78 | 1006.2 |
| 20260504023544 | 32 | 5 | 0.0 | 0.0 | 0.00 | 0.00 | 0.00 | 77 | 1006.2 |
| 20260504023441 | 32 | 5 | 0.0 | 0.0 | 0.00 | 0.00 | 0.00 | 77 | 1006.2 |
| 20260504023337 | 32 | 5 | 0.0 | 0.0 | 0.00 | 0.00 | 0.00 | 77 | 1006.2 |
| 20260504023008 | 33 | 5 | 0.0 | 0.0 | 0.00 | 0.00 | 0.00 | 77 | 1006.1 |
| 20260504022903 | 33 | 5 | 0.0 | 0.0 | 0.00 | 0.00 | 0.00 | 76 | 1006.2 |
| 20260504022538 | 33 | 5 | 0.0 | 0.0 | 0.00 | 0.00 | 0.00 | 76 | 1006.2 |
| 20260504022433 | 33 | 5 | 0.0 | 0.0 | 0.00 | 0.00 | 0.00 | 76 | 1006.2 |
| 20260504022329 | 33 | 5 | 0.0 | 0.0 | 0.00 | 0.00 | 0.00 | 76 | 1006.2 |
| 20260504022224 | 33 | 5 | 0.0 | 0.0 | 0.00 | 0.00 | 0.00 | 76 | 1006.2 |
| 20260504022121 | 33 | 5 | 0.0 | 0.0 | 0.00 | 0.00 | 0.00 | 75 | 1006.2 |
| 20260504022016 | 33 | 5 | 0.0 | 0.0 | 0.00 | 0.00 | 0.00 | 75 | 1006.2 |
| 20260504021912 | 33 | 5 | 0.0 | 0.0 | 0.00 | 0.00 | 0.00 | 75 | 1006.2 |
| 20260504021806 | 33 | 5 | 0.0 | 0.0 | 0.00 | 0.00 | 0.00 | 75 | 1006.3 |
| 20260504021445 | 34 | 5 | 0.0 | 0.0 | 0.00 | 0.01 | 0.00 | 75 | 1006.2 |
| 20260504021120 | 34 | 5 | 0.0 | 0.0 | 0.00 | 0.02 | 0.00 | 75 | 1006.1 |
| 20260504020537 | 34 | 5 | 0.0 | 0.0 | 0.00 | 0.03 | 0.00 | 74 | 1006.1 |
| 20260504020434 | 34 | 5 | 0.0 | 0.0 | 0.00 | 0.03 | 0.00 | 73 | 1006.1 |
| 20260504020327 | 34 | 5 | 0.0 | 0.0 | 0.00 | 0.03 | 0.00 | 73 | 1006.1 |
| 20260504020222 | 34 | 5 | 0.0 | 0.0 | 0.00 | 0.03 | 0.00 | 73 | 1006.1 |
| 20260504015854 | 34 | 5 | 0.0 | 0.0 | 0.00 | 0.03 | 0.00 | 73 | 1006.1 |
| 20260504015751 | 35 | 5 | 0.0 | 0.0 | 0.00 | 0.03 | 0.00 | 73 | 1006.1 |
| 20260504015646 | 35 | 5 | 0.0 | 0.0 | 0.00 | 0.03 | 0.00 | 73 | 1006.1 |
| 20260504015542 | 35 | 5 | 0.0 | 0.0 | 0.00 | 0.03 | 0.00 | 72 | 1006.1 |
| 20260504015439 | 35 | 5 | 0.0 | 0.0 | 0.00 | 0.03 | 0.00 | 72 | 1006.0 |
| 20260504015336 | 35 | 5 | 0.0 | 0.0 | 0.00 | 0.03 | 0.00 | 72 | 1006.1 |
| 20260504015231 | 35 | 5 | 0.0 | 0.0 | 0.00 | 0.03 | 0.00 | 72 | 1006.0 |
| 20260504015126 | 35 | 5 | 0.0 | 0.0 | 0.00 | 0.03 | 0.00 | 72 | 1006.1 |
| 20260504015021 | 35 | 5 | 0.0 | 0.0 | 0.00 | 0.03 | 0.00 | 72 | 1006.0 |
| 20260504014916 | 35 | 5 | 0.0 | 0.0 | 0.00 | 0.03 | 0.00 | 72 | 1006.0 |
| 20260504014811 | 35 | 13 | 0.0 | 0.0 | 0.00 | 0.03 | 0.00 | 72 | 1006.1 |
| 20260504014442 | 36 | 13 | 0.0 | 0.0 | 0.00 | 0.03 | 0.00 | 72 | 1006.1 |
| 20260504014119 | 36 | 13 | 0.0 | 0.0 | 0.00 | 0.03 | 0.00 | 72 | 1006.1 |
| 20260504014016 | 36 | 13 | 0.0 | 0.0 | 0.00 | 0.03 | 0.00 | 71 | 1006.1 |
| 20260504013910 | 36 | 13 | 0.0 | 0.0 | 0.00 | 0.03 | 0.00 | 71 | 1006.0 |
| 20260504013548 | 36 | 13 | 0.0 | 0.0 | 0.00 | 0.03 | 0.00 | 71 | 1006.0 |
| 20260504013443 | 36 | 13 | 0.0 | 0.0 | 0.00 | 0.03 | 0.00 | 71 | 1006.0 |
| 20260504013339 | 36 | 13 | 0.0 | 0.0 | 0.00 | 0.03 | 0.00 | 70 | 1006.0 |
| 20260504013236 | 36 | 13 | 0.0 | 0.0 | 0.00 | 0.03 | 0.00 | 70 | 1005.9 |
| 20260504012910 | 37 | 13 | 0.0 | 0.0 | 0.00 | 0.03 | 0.00 | 69 | 1006.0 |
| 20260504012806 | 37 | 13 | 0.0 | 0.0 | 0.00 | 0.03 | 0.00 | 69 | 1006.0 |
| 20260504012702 | 37 | 13 | 0.0 | 0.0 | 0.00 | 0.03 | 0.00 | 69 | 1006.0 |
| 20260504012600 | 37 | 13 | 0.0 | 0.0 | 0.00 | 0.03 | 0.00 | 68 | 1006.0 |
| 20260504012453 | 37 | 13 | 0.0 | 0.0 | 0.00 | 0.03 | 0.00 | 68 | 1006.0 |
| 20260504012346 | 37 | 13 | 0.0 | 0.0 | 0.00 | 0.03 | 0.00 | 68 | 1006.0 |
| 20260504012242 | 37 | 13 | 0.0 | 0.0 | 0.00 | 0.03 | 0.00 | 67 | 1006.0 |
| 20260504012138 | 37 | 13 | 0.0 | 0.0 | 0.00 | 0.03 | 0.00 | 67 | 1006.0 |
| 20260504012032 | 37 | 13 | 0.0 | 0.0 | 0.00 | 0.03 | 0.00 | 67 | 1006.0 |
| 20260504011926 | 37 | 13 | 0.0 | 0.0 | 0.00 | 0.03 | 0.00 | 67 | 1006.0 |
| 20260504011824 | 37 | 13 | 0.0 | 0.0 | 0.00 | 0.03 | 0.00 | 66 | 1006.0 |
| 20260504011722 | 37 | 13 | 0.0 | 0.0 | 0.00 | 0.03 | 0.00 | 66 | 1006.0 |
| 20260504011619 | 37 | 13 | 0.0 | 0.0 | 0.00 | 0.03 | 0.00 | 66 | 1006.0 |
| 20260504011515 | 37 | 13 | 0.0 | 0.0 | 0.00 | 0.03 | 0.00 | 66 | 1006.0 |
| 20260504011413 | 37 | 13 | 0.0 | 0.0 | 0.00 | 0.03 | 0.00 | 66 | 1006.0 |
| 20260504011307 | 37 | 13 | 0.0 | 0.0 | 0.00 | 0.03 | 0.00 | 65 | 1006.0 |
| 20260504011203 | 38 | 13 | 0.0 | 0.0 | 0.00 | 0.03 | 0.00 | 65 | 1006.0 |
| 20260504011058 | 38 | 13 | 0.0 | 0.0 | 0.00 | 0.03 | 0.00 | 65 | 1006.0 |
| 20260504010956 | 38 | 13 | 0.0 | 0.0 | 0.00 | 0.03 | 0.00 | 65 | 1006.0 |
| 20260504010849 | 38 | 13 | 0.0 | 0.0 | 0.00 | 0.03 | 0.00 | 65 | 1006.0 |
| 20260504010743 | 38 | 13 | 0.0 | 0.0 | 0.00 | 0.03 | 0.00 | 65 | 1006.0 |
| 20260504010639 | 38 | 13 | 0.0 | 0.0 | 0.00 | 0.03 | 0.00 | 65 | 1006.0 |
| 20260504010309 | 38 | 13 | 0.0 | 0.0 | 0.00 | 0.03 | 0.00 | 65 | 1006.0 |
| 20260504005723 | 38 | 13 | 0.0 | 0.0 | 0.00 | 0.03 | 0.00 | 64 | 1005.9 |
| 20260504005620 | 38 | 13 | 0.0 | 0.0 | 0.00 | 0.03 | 0.00 | 64 | 1005.9 |
| 20260504005516 | 38 | 13 | 0.0 | 0.0 | 0.00 | 0.03 | 0.00 | 63 | 1005.9 |
| 20260504005155 | 39 | 13 | 0.0 | 0.0 | 0.00 | 0.03 | 0.00 | 63 | 1005.9 |
| 20260504005050 | 39 | 13 | 0.0 | 0.0 | 0.00 | 0.03 | 0.00 | 63 | 1006.0 |
| 20260504004943 | 39 | 13 | 0.0 | 0.0 | 0.00 | 0.03 | 0.00 | 62 | 1006.0 |
| 20260504004840 | 39 | 13 | 0.0 | 0.0 | 0.00 | 0.03 | 0.00 | 62 | 1006.0 |
| 20260504004732 | 39 | 14 | 0.0 | 0.0 | 0.00 | 0.03 | 0.00 | 62 | 1005.9 |
| 20260504004625 | 39 | 14 | 0.0 | 0.0 | 0.00 | 0.03 | 0.00 | 62 | 1006.0 |
| 20260504004523 | 39 | 14 | 0.0 | 0.0 | 0.00 | 0.03 | 0.00 | 62 | 1005.9 |
| 20260504004416 | 39 | 14 | 0.0 | 0.0 | 0.00 | 0.03 | 0.00 | 62 | 1006.0 |
| 20260504004308 | 40 | 14 | 0.0 | 0.0 | 0.00 | 0.03 | 0.00 | 61 | 1005.9 |
| 20260504003942 | 40 | 14 | 0.0 | 0.0 | 0.00 | 0.03 | 0.00 | 59 | 1005.9 |
| 20260504003613 | 40 | 14 | 0.0 | 0.0 | 0.00 | 0.03 | 0.00 | 58 | 1005.9 |
| 20260504003511 | 40 | 14 | 0.0 | 0.0 | 0.00 | 0.03 | 0.00 | 58 | 1005.8 |
| 20260504003407 | 41 | 14 | 0.0 | 0.0 | 0.00 | 0.03 | 0.00 | 58 | 1005.9 |
| 20260504003302 | 41 | 14 | 0.0 | 0.0 | 0.00 | 0.03 | 0.00 | 57 | 1005.8 |
| 20260504002938 | 41 | 14 | 0.0 | 0.0 | 0.00 | 0.03 | 0.00 | 57 | 1005.8 |
| 20260504002834 | 41 | 14 | 0.0 | 0.0 | 0.00 | 0.03 | 0.00 | 56 | 1005.8 |
| 20260504002726 | 41 | 14 | 0.0 | 0.0 | 0.00 | 0.03 | 0.00 | 56 | 1005.8 |
| 20260504002623 | 41 | 14 | 0.0 | 0.0 | 0.00 | 0.03 | 0.00 | 55 | 1005.8 |
| 20260504002520 | 41 | 14 | 0.0 | 0.0 | 0.00 | 0.03 | 0.00 | 56 | 1005.8 |
| 20260504002415 | 42 | 14 | 0.0 | 0.0 | 0.00 | 0.03 | 0.00 | 55 | 1005.8 |
| 20260504002312 | 42 | 14 | 0.0 | 0.0 | 0.00 | 0.03 | 0.00 | 55 | 1005.8 |
| 20260504001949 | 42 | 5 | 0.0 | 0.0 | 0.00 | 0.03 | 0.00 | 55 | 1005.7 |
| 20260504001629 | 42 | 5 | 0.0 | 0.0 | 0.00 | 0.03 | 0.00 | 54 | 1005.7 |
| 20260504001527 | 43 | 5 | 0.0 | 0.0 | 0.00 | 0.03 | 0.00 | 54 | 1005.7 |
| 20260504001422 | 43 | 5 | 0.0 | 0.0 | 0.00 | 0.03 | 0.00 | 53 | 1005.7 |
| 20260504001320 | 43 | 5 | 0.0 | 0.0 | 0.00 | 0.03 | 0.00 | 53 | 1005.7 |
| 20260504001215 | 43 | 5 | 0.0 | 0.0 | 0.00 | 0.03 | 0.00 | 53 | 1005.7 |
| 20260504001113 | 43 | 5 | 0.0 | 0.0 | 0.00 | 0.03 | 0.00 | 52 | 1005.7 |
| 20260504001009 | 43 | 5 | 0.0 | 0.0 | 0.00 | 0.03 | 0.00 | 52 | 1005.7 |
| 20260504000905 | 43 | 5 | 0.0 | 0.0 | 0.00 | 0.03 | 0.00 | 51 | 1005.7 |
| 20260504000535 | 43 | 341 | 0.0 | 0.0 | 0.00 | 0.03 | 0.00 | 50 | 1005.7 |
| 20260504000431 | 43 | 0 | 0.0 | 0.0 | 0.00 | 0.03 | 0.00 | 50 | 1005.7 |
| 20260504000322 | 43 | 0 | 0.0 | 0.0 | 0.00 | 0.03 | 0.00 | 51 | 1005.7 |
| 20260504000219 | 43 | 0 | 0.0 | 0.0 | 0.00 | 0.03 | 0.00 | 50 | 1005.7 |
| 20260504000111 | 44 | 17 | 0.0 | 0.0 | 0.00 | 0.03 | 0.00 | 50 | 1005.7 |
| 20260504000006 | 44 | 11 | 0.0 | 0.0 | 0.00 | 0.03 | 0.00 | 50 | 1005.8 |
| 20260503235902 | 44 | 11 | 0.0 | 0.0 | 0.00 | 0.03 | 0.00 | 50 | 1005.8 |
| 20260503235756 | 44 | 323 | 0.0 | 0.0 | 0.00 | 0.03 | 0.00 | 50 | 1005.7 |
| 20260503235651 | 44 | 337 | 0.0 | 0.0 | 0.00 | 0.03 | 0.00 | 49 | 1005.7 |
| 20260503235543 | 44 | 350 | 0.0 | 0.0 | 0.00 | 0.03 | 0.00 | 49 | 1005.7 |
| 20260503235220 | 44 | 26 | 0.0 | 0.0 | 0.00 | 0.03 | 0.00 | 49 | 1005.8 |
| 20260503235115 | 44 | 30 | 0.0 | 0.0 | 0.00 | 0.03 | 0.00 | 49 | 1005.7 |
| 20260503235013 | 44 | 355 | 0.0 | 0.0 | 0.00 | 0.03 | 0.00 | 48 | 1005.8 |
| 20260503234908 | 44 | 24 | 0.0 | 0.0 | 0.00 | 0.03 | 0.00 | 48 | 1005.8 |
| 20260503234542 | 44 | 18 | 0.0 | 0.0 | 0.00 | 0.03 | 0.00 | 48 | 1005.8 |
| 20260503234435 | 44 | 38 | 0.0 | 0.0 | 0.00 | 0.03 | 0.00 | 48 | 1005.8 |
| 20260503234332 | 44 | 11 | 0.0 | 0.0 | 0.00 | 0.03 | 0.00 | 48 | 1005.8 |
| 20260503234229 | 44 | 11 | 0.0 | 0.0 | 0.00 | 0.03 | 0.00 | 48 | 1005.8 |
| 20260503234124 | 44 | 21 | 0.0 | 0.0 | 0.00 | 0.03 | 0.00 | 48 | 1005.8 |
| 20260503233757 | 45 | 15 | 0.0 | 0.0 | 0.00 | 0.03 | 0.00 | 48 | 1005.9 |
| 20260503233434 | 45 | 33 | 0.0 | 0.0 | 0.00 | 0.03 | 0.00 | 47 | 1005.8 |
| 20260503233107 | 45 | 292 | 0.0 | 0.9 | 0.00 | 0.03 | 0.00 | 47 | 1005.9 |
| 20260503233002 | 45 | 14 | 0.0 | 0.9 | 0.00 | 0.03 | 0.00 | 47 | 1005.8 |
| 20260503232855 | 45 | 22 | 0.0 | 5.2 | 0.00 | 0.03 | 0.00 | 47 | 1005.8 |
| 20260503232748 | 45 | 11 | 0.0 | 5.2 | 0.00 | 0.03 | 0.00 | 47 | 1005.7 |
| 20260503232642 | 45 | 265 | 0.0 | 2.6 | 0.00 | 0.03 | 0.00 | 47 | 1005.7 |
| 20260503232537 | 45 | 20 | 0.0 | 0.0 | 0.00 | 0.03 | 0.00 | 46 | 1005.7 |
| 20260503232431 | 45 | 341 | 0.0 | 0.0 | 0.00 | 0.03 | 0.00 | 46 | 1005.8 |
| 20260503232327 | 45 | 5 | 0.0 | 0.9 | 0.00 | 0.03 | 0.00 | 47 | 1005.7 |
| 20260503231742 | 45 | 28 | 0.0 | 0.0 | 0.00 | 0.03 | 0.00 | 47 | 1005.7 |
| 20260503231636 | 45 | 35 | 0.0 | 0.0 | 0.00 | 0.03 | 0.00 | 46 | 1005.7 |
| 20260503231532 | 45 | 61 | 0.0 | 0.0 | 0.00 | 0.03 | 0.00 | 46 | 1005.6 |
| 20260503231430 | 45 | 5 | 0.0 | 0.0 | 0.00 | 0.03 | 0.00 | 46 | 1005.6 |
| 20260503231326 | 45 | 49 | 0.0 | 0.0 | 0.00 | 0.03 | 0.00 | 47 | 1005.7 |
| 20260503231222 | 45 | 56 | 0.0 | 0.0 | 0.00 | 0.03 | 0.00 | 46 | 1005.7 |
| 20260503231118 | 45 | 11 | 0.0 | 0.0 | 0.00 | 0.03 | 0.00 | 46 | 1005.7 |
| 20260503231012 | 45 | 26 | 0.0 | 8.7 | 0.00 | 0.03 | 0.00 | 46 | 1005.7 |
| 20260503230906 | 45 | 343 | 0.0 | 8.7 | 0.00 | 0.03 | 0.00 | 46 | 1005.7 |
| 20260503230328 | 45 | 347 | 0.0 | 0.0 | 0.00 | 0.03 | 0.00 | 46 | 1005.7 |
| 20260503230002 | 45 | 0 | 0.0 | 7.8 | 0.00 | 0.03 | 0.00 | 45 | 1005.8 |
| 20260503225858 | 45 | 317 | 0.0 | 7.8 | 0.00 | 0.03 | 0.00 | 45 | 1005.7 |
| 20260503225752 | 45 | 0 | 0.0 | 7.8 | 0.00 | 0.03 | 0.00 | 45 | 1005.7 |
| 20260503225649 | 45 | 5 | 0.0 | 7.8 | 0.00 | 0.03 | 0.00 | 45 | 1005.7 |
| 20260503225546 | 45 | 349 | 0.0 | 7.8 | 0.00 | 0.03 | 0.00 | 45 | 1005.7 |
| 20260503225442 | 45 | 30 | 0.0 | 7.8 | 0.00 | 0.03 | 0.00 | 45 | 1005.7 |
| 20260503225336 | 45 | 50 | 0.0 | 7.8 | 0.00 | 0.03 | 0.00 | 45 | 1005.7 |
| 20260503225230 | 46 | 288 | 0.0 | 7.8 | 0.00 | 0.03 | 0.00 | 45 | 1005.6 |
| 20260503225125 | 46 | 9 | 0.0 | 0.0 | 0.00 | 0.03 | 0.00 | 45 | 1005.7 |
| 20260503225022 | 46 | 347 | 0.0 | 0.0 | 0.00 | 0.03 | 0.00 | 45 | 1005.7 |
| 20260503224655 | 46 | 27 | 0.0 | 0.0 | 0.00 | 0.03 | 0.00 | 45 | 1005.7 |
| 20260503224550 | 46 | 9 | 0.0 | 5.2 | 0.00 | 0.03 | 0.00 | 45 | 1005.7 |
| 20260503224231 | 46 | 15 | 0.0 | 5.2 | 0.00 | 0.03 | 0.00 | 45 | 1005.7 |
| 20260503224126 | 46 | 0 | 0.0 | 2.6 | 0.00 | 0.03 | 0.00 | 45 | 1005.8 |
| 20260503223758 | 46 | 5 | 0.0 | 8.7 | 0.00 | 0.03 | 0.00 | 45 | 1005.7 |
| 20260503223653 | 46 | 274 | 0.0 | 8.7 | 0.00 | 0.03 | 0.00 | 45 | 1005.7 |
| 20260503223332 | 46 | 9 | 0.0 | 3.5 | 0.00 | 0.03 | 0.00 | 45 | 1005.7 |
| 20260503223227 | 46 | 299 | 0.0 | 0.0 | 0.00 | 0.03 | 0.00 | 45 | 1005.7 |
| 20260503223122 | 46 | 282 | 0.9 | 0.0 | 0.00 | 0.03 | 0.00 | 45 | 1005.7 |
| 20260503223015 | 46 | 312 | 0.9 | 10.4 | 0.00 | 0.03 | 0.00 | 44 | 1005.8 |
| 20260503222909 | 46 | 355 | 0.9 | 10.4 | 0.00 | 0.03 | 0.00 | 44 | 1005.7 |
| 20260503222541 | 47 | 355 | 0.0 | 10.4 | 0.00 | 0.03 | 0.00 | 44 | 1005.7 |
| 20260503222435 | 47 | 311 | 0.0 | 10.4 | 0.00 | 0.03 | 0.00 | 44 | 1005.7 |
| 20260503222328 | 47 | 355 | 0.0 | 10.4 | 0.00 | 0.03 | 0.00 | 43 | 1005.7 |
| 20260503222222 | 47 | 302 | 0.0 | 10.4 | 0.00 | 0.03 | 0.00 | 43 | 1005.6 |
| 20260503222120 | 47 | 306 | 0.0 | 10.4 | 0.00 | 0.03 | 0.00 | 44 | 1005.7 |
| 20260503222014 | 47 | 0 | 0.0 | 0.9 | 0.00 | 0.03 | 0.00 | 44 | 1005.6 |
| 20260503221912 | 47 | 254 | 0.0 | 0.9 | 0.00 | 0.03 | 0.00 | 44 | 1005.6 |
| 20260503221807 | 47 | 12 | 0.0 | 0.0 | 0.00 | 0.03 | 0.00 | 45 | 1005.6 |
| 20260503221701 | 47 | 308 | 0.0 | 1.7 | 0.00 | 0.03 | 0.00 | 44 | 1005.6 |
| 20260503221557 | 47 | 297 | 0.0 | 1.7 | 0.00 | 0.03 | 0.00 | 44 | 1005.6 |
| 20260503221452 | 47 | 297 | 0.0 | 1.7 | 0.00 | 0.03 | 0.00 | 44 | 1005.6 |
| 20260503221347 | 47 | 306 | 0.0 | 0.0 | 0.00 | 0.03 | 0.00 | 45 | 1005.5 |
| 20260503221241 | 47 | 210 | 0.0 | 0.0 | 0.00 | 0.03 | 0.00 | 43 | 1005.5 |
| 20260503221139 | 47 | 309 | 0.0 | 9.6 | 0.00 | 0.03 | 0.00 | 43 | 1005.5 |
| 20260503220816 | 47 | 290 | 0.0 | 0.9 | 0.00 | 0.03 | 0.00 | 43 | 1005.6 |
| 20260503220714 | 47 | 292 | 0.0 | 0.9 | 0.00 | 0.03 | 0.00 | 43 | 1005.6 |
| 20260503220613 | 47 | 306 | 0.0 | 0.9 | 0.00 | 0.03 | 0.00 | 44 | 1005.6 |
| 20260503220509 | 47 | 340 | 0.0 | 7.0 | 0.00 | 0.03 | 0.00 | 43 | 1005.6 |
| 20260503220403 | 47 | 294 | 0.0 | 7.0 | 0.00 | 0.03 | 0.00 | 43 | 1005.6 |
| 20260503220301 | 47 | 245 | 0.0 | 6.1 | 0.00 | 0.03 | 0.00 | 44 | 1005.6 |
| 20260503220159 | 47 | 309 | 0.0 | 0.0 | 0.00 | 0.03 | 0.00 | 44 | 1005.6 |
| 20260503220057 | 47 | 307 | 0.0 | 0.0 | 0.00 | 0.03 | 0.00 | 44 | 1005.6 |
| 20260503215953 | 47 | 34 | 0.0 | 0.0 | 0.00 | 0.03 | 0.00 | 44 | 1005.6 |
| 20260503215850 | 47 | 284 | 0.0 | 0.0 | 0.00 | 0.03 | 0.00 | 44 | 1005.6 |
| 20260503215744 | 47 | 298 | 0.0 | 0.0 | 0.00 | 0.03 | 0.00 | 44 | 1005.6 |
| 20260503215641 | 47 | 284 | 0.0 | 0.9 | 0.00 | 0.03 | 0.00 | 44 | 1005.6 |
| 20260503215534 | 47 | 311 | 0.0 | 0.0 | 0.00 | 0.03 | 0.00 | 45 | 1005.6 |
| 20260503215428 | 47 | 298 | 0.0 | 0.0 | 0.00 | 0.03 | 0.00 | 45 | 1005.6 |
| 20260503215322 | 47 | 307 | 0.0 | 0.9 | 0.00 | 0.03 | 0.00 | 45 | 1005.6 |
| 20260503215219 | 47 | 5 | 0.0 | 0.9 | 0.00 | 0.03 | 0.00 | 45 | 1005.6 |
| 20260503214855 | 47 | 268 | 0.0 | 0.0 | 0.00 | 0.03 | 0.00 | 44 | 1005.7 |
| 20260503214753 | 47 | 273 | 0.0 | 0.0 | 0.00 | 0.03 | 0.00 | 44 | 1005.6 |
| 20260503214429 | 47 | 19 | 0.0 | 0.0 | 0.00 | 0.03 | 0.00 | 43 | 1005.6 |
| 20260503214105 | 48 | 327 | 0.0 | 6.1 | 0.00 | 0.03 | 0.00 | 44 | 1005.7 |
| 20260503214003 | 48 | 344 | 0.0 | 6.1 | 0.00 | 0.03 | 0.00 | 45 | 1005.7 |
| 20260503213638 | 48 | 342 | 0.0 | 7.8 | 0.00 | 0.04 | 0.00 | 44 | 1005.6 |
| 20260503213535 | 48 | 290 | 0.0 | 7.8 | 0.00 | 0.04 | 0.00 | 44 | 1005.6 |
| 20260503213430 | 48 | 328 | 0.0 | 0.0 | 0.00 | 0.04 | 0.00 | 44 | 1005.7 |
| 20260503213326 | 47 | 300 | 0.0 | 7.0 | 0.00 | 0.04 | 0.00 | 44 | 1005.7 |
| 20260503213222 | 47 | 341 | 0.0 | 7.0 | 0.00 | 0.04 | 0.00 | 43 | 1005.7 |
| 20260503213118 | 47 | 309 | 0.0 | 3.5 | 0.00 | 0.04 | 0.00 | 44 | 1005.7 |
| 20260503213011 | 47 | 296 | 0.0 | 0.0 | 0.00 | 0.04 | 0.00 | 44 | 1005.7 |
| 20260503212430 | 47 | 50 | 0.0 | 1.7 | 0.00 | 0.04 | 0.00 | 44 | 1005.7 |
| 20260503212327 | 47 | 292 | 0.0 | 1.7 | 0.00 | 0.04 | 0.00 | 44 | 1005.7 |
| 20260503212220 | 47 | 15 | 0.0 | 0.0 | 0.00 | 0.04 | 0.00 | 44 | 1005.8 |
| 20260503212116 | 47 | 21 | 0.0 | 10.4 | 0.00 | 0.04 | 0.00 | 43 | 1005.7 |
| 20260503212010 | 47 | 307 | 0.0 | 10.4 | 0.00 | 0.04 | 0.00 | 43 | 1005.7 |
| 20260503211647 | 47 | 323 | 0.0 | 6.1 | 0.00 | 0.04 | 0.00 | 43 | 1005.7 |
| 20260503211542 | 47 | 350 | 0.0 | 0.0 | 0.00 | 0.04 | 0.00 | 43 | 1005.7 |
| 20260503211435 | 47 | 327 | 0.0 | 4.3 | 0.00 | 0.04 | 0.00 | 44 | 1005.7 |
| 20260503211329 | 47 | 32 | 0.0 | 4.3 | 0.00 | 0.04 | 0.00 | 44 | 1005.7 |
| 20260503210747 | 47 | 327 | 0.0 | 0.0 | 0.00 | 0.04 | 0.00 | 43 | 1005.7 |
| 20260503210645 | 47 | 28 | 0.0 | 0.0 | 0.00 | 0.04 | 0.00 | 44 | 1005.7 |
| 20260503210538 | 47 | 317 | 0.0 | 0.0 | 0.00 | 0.04 | 0.00 | 44 | 1005.7 |
| 20260503210432 | 47 | 44 | 0.0 | 7.0 | 0.00 | 0.04 | 0.00 | 44 | 1005.7 |
| 20260503210329 | 47 | 334 | 0.0 | 7.0 | 0.00 | 0.04 | 0.00 | 44 | 1005.8 |
| 20260503210222 | 47 | 336 | 0.0 | 7.0 | 0.00 | 0.04 | 0.00 | 45 | 1005.8 |
| 20260503210119 | 47 | 319 | 0.0 | 0.0 | 0.00 | 0.04 | 0.00 | 45 | 1005.7 |
| 20260503210016 | 47 | 355 | 0.0 | 0.0 | 0.00 | 0.04 | 0.00 | 45 | 1005.7 |
| 20260503205914 | 47 | 23 | 0.0 | 0.0 | 0.00 | 0.04 | 0.00 | 45 | 1005.7 |
| 20260503205812 | 47 | 15 | 0.0 | 0.0 | 0.00 | 0.04 | 0.00 | 44 | 1005.7 |
| 20260503205709 | 47 | 320 | 0.0 | 0.0 | 0.00 | 0.04 | 0.00 | 45 | 1005.6 |
| 20260503205602 | 47 | 22 | 0.0 | 0.0 | 0.00 | 0.04 | 0.00 | 45 | 1005.6 |
| 20260503205458 | 47 | 22 | 0.0 | 0.0 | 0.00 | 0.04 | 0.00 | 44 | 1005.6 |
| 20260503205356 | 47 | 174 | 0.0 | 1.7 | 0.00 | 0.04 | 0.00 | 44 | 1005.6 |
| 20260503205251 | 47 | 346 | 0.0 | 1.7 | 0.00 | 0.04 | 0.00 | 44 | 1005.6 |
| 20260503205148 | 47 | 331 | 0.0 | 0.0 | 0.00 | 0.04 | 0.00 | 44 | 1005.7 |
| 20260503205044 | 47 | 334 | 0.0 | 0.0 | 0.00 | 0.04 | 0.00 | 45 | 1005.7 |
| 20260503204940 | 47 | 355 | 0.0 | 3.5 | 0.00 | 0.04 | 0.00 | 44 | 1005.7 |
| 20260503204836 | 47 | 294 | 0.0 | 3.5 | 0.00 | 0.04 | 0.00 | 44 | 1005.6 |
| 20260503204730 | 47 | 15 | 0.0 | 3.5 | 0.00 | 0.04 | 0.00 | 44 | 1005.7 |
| 20260503204626 | 47 | 26 | 0.0 | 3.5 | 0.00 | 0.04 | 0.00 | 45 | 1005.7 |
| 20260503204307 | 47 | 16 | 0.0 | 3.5 | 0.00 | 0.04 | 0.00 | 45 | 1005.7 |
| 20260503204159 | 47 | 36 | 0.0 | 3.5 | 0.00 | 0.04 | 0.00 | 46 | 1005.7 |
| 20260503204052 | 47 | 343 | 0.0 | 0.0 | 0.00 | 0.04 | 0.00 | 45 | 1005.6 |
| 20260503203947 | 47 | 355 | 0.0 | 0.0 | 0.00 | 0.04 | 0.00 | 44 | 1005.6 |
| 20260503203844 | 47 | 68 | 0.0 | 0.0 | 0.00 | 0.04 | 0.00 | 44 | 1005.7 |
| 20260503203737 | 47 | 25 | 0.0 | 0.0 | 0.00 | 0.04 | 0.00 | 44 | 1005.6 |
| 20260503203408 | 47 | 22 | 0.0 | 0.0 | 0.00 | 0.04 | 0.00 | 44 | 1005.7 |
| 20260503203303 | 47 | 355 | 0.0 | 7.0 | 0.00 | 0.04 | 0.00 | 45 | 1005.7 |
| 20260503203201 | 47 | 20 | 0.0 | 7.0 | 0.00 | 0.04 | 0.00 | 44 | 1005.7 |
| 20260503203055 | 47 | 12 | 0.0 | 7.0 | 0.00 | 0.04 | 0.00 | 44 | 1005.7 |
| 20260503202949 | 47 | 14 | 0.0 | 2.6 | 0.00 | 0.04 | 0.00 | 44 | 1005.6 |
| 20260503202843 | 47 | 28 | 0.0 | 2.6 | 0.00 | 0.04 | 0.00 | 45 | 1005.7 |
| 20260503202738 | 47 | 348 | 0.0 | 2.6 | 0.00 | 0.04 | 0.00 | 44 | 1005.7 |
| 20260503202636 | 47 | 279 | 0.0 | 0.0 | 0.00 | 0.04 | 0.00 | 45 | 1005.6 |
| 20260503202530 | 47 | 23 | 0.0 | 2.6 | 0.00 | 0.04 | 0.00 | 45 | 1005.7 |
| 20260503202427 | 47 | 291 | 0.0 | 0.0 | 0.00 | 0.04 | 0.00 | 45 | 1005.7 |
| 20260503202322 | 47 | 325 | 0.0 | 0.0 | 0.00 | 0.04 | 0.00 | 45 | 1005.7 |
| 20260503202220 | 47 | 348 | 0.0 | 2.6 | 0.00 | 0.04 | 0.00 | 45 | 1005.7 |
| 20260503202114 | 47 | 350 | 0.0 | 2.6 | 0.00 | 0.04 | 0.00 | 44 | 1005.7 |
| 20260503201753 | 47 | 34 | 0.0 | 0.0 | 0.00 | 0.04 | 0.00 | 44 | 1005.7 |
| 20260503201430 | 48 | 333 | 0.0 | 7.0 | 0.00 | 0.04 | 0.00 | 44 | 1005.6 |
| 20260503201328 | 48 | 11 | 0.0 | 6.1 | 0.00 | 0.04 | 0.00 | 44 | 1005.6 |
| 20260503200304 | 49 | 342 | 0.0 | 4.3 | 0.00 | 0.04 | 0.00 | 43 | 1005.7 |
| 20260503200201 | 49 | 24 | 0.0 | 4.3 | 0.00 | 0.04 | 0.00 | 42 | 1005.7 |
| 20260503200057 | 49 | 300 | 0.0 | 4.3 | 0.00 | 0.04 | 0.00 | 42 | 1005.6 |
| 20260503195732 | 49 | 238 | 0.0 | 3.5 | 0.00 | 0.04 | 0.00 | 42 | 1005.6 |
| 20260503195629 | 49 | 292 | 0.0 | 1.7 | 0.00 | 0.04 | 0.00 | 42 | 1005.7 |
| 20260503195525 | 49 | 26 | 0.0 | 0.0 | 0.00 | 0.04 | 0.00 | 43 | 1005.7 |
| 20260503195419 | 49 | 342 | 0.0 | 0.0 | 0.00 | 0.04 | 0.00 | 41 | 1005.7 |
| 20260503195312 | 49 | 23 | 0.0 | 0.9 | 0.00 | 0.04 | 0.00 | 41 | 1005.6 |
| 20260503195209 | 49 | 0 | 0.0 | 0.9 | 0.00 | 0.04 | 0.00 | 42 | 1005.7 |
| 20260503195106 | 49 | 317 | 0.9 | 0.9 | 0.00 | 0.04 | 0.00 | 42 | 1005.6 |
| 20260503195003 | 49 | 5 | 0.9 | 0.0 | 0.00 | 0.04 | 0.00 | 43 | 1005.6 |
| 20260503194856 | 49 | 305 | 0.9 | 10.4 | 0.00 | 0.04 | 0.00 | 42 | 1005.6 |
| 20260503194752 | 49 | 286 | 0.9 | 10.4 | 0.00 | 0.04 | 0.00 | 42 | 1005.6 |
| 20260503194432 | 49 | 320 | 1.7 | 11.3 | 0.00 | 0.04 | 0.00 | 42 | 1005.5 |
| 20260503194327 | 49 | 321 | 1.7 | 11.3 | 0.00 | 0.04 | 0.00 | 42 | 1005.4 |
| 20260503194221 | 49 | 284 | 0.9 | 11.3 | 0.00 | 0.04 | 0.00 | 43 | 1005.5 |
| 20260503194117 | 49 | 350 | 0.9 | 11.3 | 0.00 | 0.04 | 0.00 | 43 | 1005.5 |
| 20260503194014 | 49 | 321 | 1.7 | 11.3 | 0.00 | 0.04 | 0.00 | 42 | 1005.4 |
| 20260503193912 | 49 | 355 | 1.7 | 11.3 | 0.00 | 0.04 | 0.00 | 42 | 1005.4 |
| 20260503193804 | 49 | 252 | 0.9 | 11.3 | 0.00 | 0.04 | 0.00 | 42 | 1005.5 |
| 20260503193437 | 48 | 326 | 0.0 | 9.6 | 0.00 | 0.04 | 0.00 | 43 | 1005.5 |
| 20260503193334 | 48 | 355 | 0.0 | 8.7 | 0.00 | 0.04 | 0.00 | 42 | 1005.6 |
| 20260503192750 | 48 | 307 | 0.0 | 4.3 | 0.00 | 0.04 | 0.00 | 43 | 1005.7 |
| 20260503192643 | 48 | 334 | 0.0 | 0.0 | 0.00 | 0.04 | 0.00 | 44 | 1005.7 |
| 20260503192319 | 48 | 278 | 0.0 | 11.3 | 0.00 | 0.04 | 0.00 | 43 | 1005.7 |
| 20260503192214 | 48 | 279 | 0.0 | 11.3 | 0.00 | 0.04 | 0.00 | 42 | 1005.7 |
| 20260503192111 | 48 | 290 | 0.0 | 2.6 | 0.00 | 0.04 | 0.00 | 43 | 1005.7 |
| 20260503192005 | 48 | 309 | 0.0 | 0.0 | 0.00 | 0.04 | 0.00 | 44 | 1005.7 |
| 20260503191902 | 48 | 306 | 0.0 | 4.3 | 0.00 | 0.04 | 0.00 | 43 | 1005.7 |
| 20260503191758 | 48 | 255 | 0.0 | 4.3 | 0.00 | 0.04 | 0.00 | 43 | 1005.7 |
| 20260503191656 | 48 | 348 | 0.0 | 4.3 | 0.00 | 0.04 | 0.00 | 44 | 1005.7 |
| 20260503191551 | 48 | 279 | 0.0 | 0.0 | 0.00 | 0.04 | 0.00 | 43 | 1005.7 |
| 20260503191448 | 48 | 325 | 0.9 | 0.0 | 0.00 | 0.04 | 0.00 | 43 | 1005.7 |
| 20260503191346 | 48 | 259 | 0.9 | 0.0 | 0.00 | 0.04 | 0.00 | 44 | 1005.7 |
| 20260503191242 | 48 | 209 | 0.9 | 10.4 | 0.00 | 0.04 | 0.00 | 43 | 1005.7 |
| 20260503191138 | 48 | 288 | 0.9 | 10.4 | 0.00 | 0.04 | 0.00 | 43 | 1005.7 |
| 20260503191034 | 48 | 265 | 0.0 | 9.6 | 0.00 | 0.04 | 0.00 | 43 | 1005.6 |
| 20260503190932 | 48 | 303 | 0.0 | 9.6 | 0.00 | 0.04 | 0.00 | 43 | 1005.6 |
| 20260503190827 | 48 | 87 | 0.0 | 0.0 | 0.00 | 0.04 | 0.00 | 43 | 1005.6 |
| 20260503190240 | 49 | 288 | 0.0 | 11.3 | 0.00 | 0.04 | 0.00 | 44 | 1005.6 |
| 20260503190136 | 49 | 321 | 0.0 | 11.3 | 0.00 | 0.04 | 0.00 | 43 | 1005.6 |
| 20260503190030 | 49 | 315 | 0.0 | 11.3 | 0.00 | 0.04 | 0.00 | 44 | 1005.6 |
| 20260503185926 | 49 | 313 | 0.0 | 11.3 | 0.00 | 0.04 | 0.00 | 43 | 1005.6 |
| 20260503185822 | 49 | 40 | 0.0 | 11.3 | 0.00 | 0.04 | 0.00 | 43 | 1005.6 |
| 20260503185718 | 49 | 255 | 0.0 | 11.3 | 0.00 | 0.04 | 0.00 | 43 | 1005.6 |
| 20260503185613 | 49 | 244 | 0.0 | 11.3 | 0.00 | 0.04 | 0.00 | 43 | 1005.6 |
| 20260503185247 | 49 | 312 | 0.0 | 11.3 | 0.00 | 0.04 | 0.00 | 43 | 1005.6 |
| 20260503184920 | 49 | 271 | 0.0 | 4.3 | 0.00 | 0.04 | 0.00 | 42 | 1005.6 |
| 20260503184817 | 49 | 312 | 0.0 | 1.7 | 0.00 | 0.04 | 0.00 | 42 | 1005.6 |
| 20260503184453 | 48 | 290 | 0.9 | 7.8 | 0.00 | 0.04 | 0.00 | 42 | 1005.7 |
| 20260503184347 | 48 | 290 | 0.0 | 7.8 | 0.00 | 0.04 | 0.00 | 42 | 1005.7 |
| 20260503184243 | 48 | 292 | 0.0 | 6.1 | 0.00 | 0.04 | 0.00 | 42 | 1005.7 |
| 20260503184141 | 48 | 290 | 0.0 | 6.1 | 0.00 | 0.04 | 0.00 | 42 | 1005.7 |
| 20260503184037 | 48 | 289 | 0.9 | 6.1 | 0.00 | 0.04 | 0.00 | 43 | 1005.7 |
| 20260503183935 | 48 | 325 | 0.9 | 6.1 | 0.00 | 0.04 | 0.00 | 43 | 1005.7 |
| 20260503183829 | 48 | 282 | 0.9 | 6.1 | 0.00 | 0.04 | 0.00 | 43 | 1005.7 |
| 20260503183723 | 48 | 300 | 0.9 | 11.3 | 0.00 | 0.04 | 0.00 | 42 | 1005.8 |
| 20260503183618 | 48 | 274 | 0.9 | 11.3 | 0.00 | 0.04 | 0.00 | 43 | 1005.7 |
| 20260503183515 | 48 | 21 | 0.9 | 11.3 | 0.00 | 0.04 | 0.00 | 42 | 1005.7 |
| 20260503183408 | 48 | 302 | 0.9 | 11.3 | 0.00 | 0.04 | 0.00 | 42 | 1005.8 |
| 20260503183304 | 48 | 321 | 0.9 | 11.3 | 0.00 | 0.04 | 0.00 | 42 | 1005.8 |
| 20260503183200 | 48 | 314 | 0.9 | 11.3 | 0.00 | 0.04 | 0.00 | 43 | 1005.7 |
| 20260503183058 | 48 | 294 | 0.0 | 11.3 | 0.00 | 0.04 | 0.00 | 42 | 1005.8 |
| 20260503182952 | 48 | 319 | 0.0 | 11.3 | 0.00 | 0.04 | 0.00 | 42 | 1005.7 |
| 20260503182851 | 48 | 282 | 0.0 | 10.4 | 0.00 | 0.04 | 0.00 | 42 | 1005.8 |
| 20260503182744 | 48 | 303 | 0.0 | 10.4 | 0.00 | 0.04 | 0.00 | 42 | 1005.7 |
| 20260503182640 | 48 | 15 | 0.0 | 10.4 | 0.00 | 0.04 | 0.00 | 42 | 1005.7 |
| 20260503182055 | 49 | 297 | 0.0 | 0.0 | 0.00 | 0.04 | 0.00 | 43 | 1005.7 |
| 20260503181732 | 48 | 323 | 0.0 | 0.0 | 0.00 | 0.04 | 0.00 | 44 | 1005.8 |
| 20260503181625 | 48 | 290 | 0.0 | 7.0 | 0.00 | 0.04 | 0.00 | 43 | 1005.7 |
| 20260503181519 | 48 | 288 | 0.0 | 7.0 | 0.00 | 0.04 | 0.00 | 42 | 1005.8 |
| 20260503181415 | 48 | 262 | 0.0 | 6.1 | 0.00 | 0.04 | 0.00 | 42 | 1005.9 |
| 20260503181052 | 49 | 246 | 0.0 | 6.1 | 0.00 | 0.04 | 0.00 | 42 | 1005.8 |
| 20260503180946 | 49 | 348 | 0.0 | 0.0 | 0.00 | 0.04 | 0.00 | 42 | 1005.8 |
| 20260503180840 | 49 | 314 | 0.0 | 0.0 | 0.00 | 0.04 | 0.00 | 42 | 1005.9 |
| 20260503180738 | 49 | 229 | 0.0 | 1.7 | 0.00 | 0.04 | 0.00 | 42 | 1005.8 |
| 20260503180635 | 49 | 292 | 0.0 | 1.7 | 0.00 | 0.04 | 0.00 | 42 | 1005.8 |
| 20260503180527 | 49 | 255 | 0.0 | 1.7 | 0.00 | 0.04 | 0.00 | 42 | 1005.8 |
| 20260503180421 | 49 | 292 | 0.9 | 5.2 | 0.00 | 0.04 | 0.00 | 43 | 1005.9 |
| 20260503180319 | 49 | 35 | 0.9 | 5.2 | 0.00 | 0.04 | 0.00 | 42 | 1005.9 |
| 20260503180213 | 49 | 325 | 0.9 | 5.2 | 0.00 | 0.04 | 0.00 | 42 | 1005.9 |
| 20260503180111 | 49 | 14 | 0.9 | 5.2 | 0.00 | 0.04 | 0.00 | 42 | 1005.9 |
| 20260503180005 | 49 | 279 | 0.9 | 5.2 | 0.00 | 0.04 | 0.00 | 42 | 1005.8 |
| 20260503175641 | 49 | 255 | 0.0 | 12.2 | 0.00 | 0.04 | 0.00 | 41 | 1005.9 |
| 20260503175533 | 50 | 264 | 0.0 | 12.2 | 0.00 | 0.04 | 0.00 | 42 | 1005.9 |
| 20260503175428 | 50 | 289 | 0.0 | 12.2 | 0.00 | 0.04 | 0.00 | 41 | 1005.8 |
| 20260503175320 | 50 | 235 | 0.0 | 6.1 | 0.00 | 0.04 | 0.00 | 41 | 1005.8 |
| 20260503175215 | 50 | 323 | 0.0 | 2.6 | 0.00 | 0.04 | 0.00 | 42 | 1005.8 |
| 20260503174851 | 49 | 39 | 0.0 | 0.0 | 0.00 | 0.04 | 0.00 | 43 | 1005.9 |
| 20260503174746 | 49 | 33 | 0.0 | 0.0 | 0.00 | 0.04 | 0.00 | 43 | 1005.9 |
| 20260503174639 | 49 | 275 | 0.0 | 0.0 | 0.00 | 0.04 | 0.00 | 42 | 1005.9 |
| 20260503174534 | 49 | 262 | 0.0 | 0.0 | 0.00 | 0.04 | 0.00 | 42 | 1005.9 |
| 20260503174213 | 49 | 277 | 0.0 | 4.3 | 0.00 | 0.04 | 0.00 | 42 | 1006.0 |
| 20260503174106 | 49 | 295 | 0.0 | 4.3 | 0.00 | 0.04 | 0.00 | 43 | 1006.0 |
| 20260503174001 | 49 | 265 | 0.0 | 2.6 | 0.00 | 0.04 | 0.00 | 42 | 1006.0 |